NT9G Weather Reports


time (UTC)temp
F
wind
direction
speed
knots
gust
knots
rain 1hr
in
rain 24hr
in
rain mn
in
humidity
%
barometer
mb
20260506012121 54 0 0.0 0.0 0.00 0.00 0.01 42 1010.5
20260506011623 54 0 0.0 0.0 0.00 0.00 0.01 41 1010.3
20260506011120 54 0 0.0 0.0 0.00 0.00 0.01 41 1010.3
20260506010121 54 0 0.0 0.0 0.00 0.00 0.01 40 1010.2
20260506005622 54 0 0.0 0.0 0.00 0.00 0.01 39 1010.2
20260506005123 54 0 0.0 0.0 0.00 0.00 0.01 39 1010.1
20260505223611 57 0 0.0 0.0 0.00 0.00 0.01 35 1010.0
20260505223110 57 0 0.0 0.0 0.00 0.00 0.01 37 1010.1
20260505222610 57 0 0.0 0.0 0.00 0.00 0.01 35 1010.1
20260505222110 57 0 0.0 0.0 0.00 0.00 0.01 36 1010.1
20260505221610 57 0 0.0 0.0 0.00 0.00 0.01 36 1010.2
20260505221109 56 0 0.0 0.0 0.00 0.00 0.01 36 1010.1
20260505220609 56 0 0.0 0.0 0.00 0.00 0.01 37 1010.2
20260505220109 56 0 0.0 0.0 0.00 0.00 0.01 36 1010.4
20260505215609 57 0 0.0 0.0 0.00 0.00 0.01 36 1010.4
20260505215108 57 0 0.0 0.0 0.00 0.00 0.01 36 1010.4
20260505214608 57 0 0.0 0.0 0.00 0.00 0.01 37 1010.4
20260505214108 57 0 0.0 0.0 0.00 0.00 0.01 38 1010.3
20260505213607 56 0 0.0 0.0 0.00 0.00 0.01 37 1010.3
20260505213107 57 0 0.0 0.0 0.00 0.00 0.01 37 1010.5
20260505212607 57 0 0.0 0.0 0.00 0.00 0.01 37 1010.4
20260505212106 57 0 0.0 0.0 0.00 0.00 0.01 36 1010.4
20260505211606 57 0 0.0 0.0 0.00 0.00 0.01 36 1010.4
20260505211106 56 0 0.0 0.0 0.00 0.00 0.01 38 1010.4
20260505210606 56 0 0.0 0.0 0.00 0.00 0.01 38 1010.5
20260505210106 56 0 0.0 0.0 0.00 0.00 0.01 37 1010.7
20260505205605 56 0 0.0 0.0 0.00 0.00 0.01 35 1010.8
20260505205105 56 0 0.0 0.0 0.00 0.00 0.01 36 1010.8
20260505204604 56 0 0.0 0.0 0.00 0.00 0.01 36 1011.0
20260505204104 56 0 0.0 0.0 0.00 0.00 0.01 35 1011.0
20260505203604 56 0 0.0 0.0 0.00 0.00 0.01 37 1011.0
20260505203104 55 0 0.0 0.0 0.00 0.00 0.01 35 1011.1
20260505202603 55 0 0.0 0.0 0.00 0.00 0.01 36 1011.1
20260505202103 55 0 0.0 0.0 0.00 0.00 0.01 39 1011.1
20260505201603 55 0 0.0 0.0 0.00 0.00 0.01 38 1011.3
20260505201103 55 0 0.0 0.0 0.00 0.00 0.01 39 1011.2
20260505200602 55 0 0.0 0.0 0.00 0.00 0.01 38 1011.2
20260505195602 56 0 0.0 0.0 0.00 0.00 0.01 38 1011.5
20260505195101 56 0 0.0 0.0 0.00 0.00 0.01 39 1011.4
20260505194601 56 0 0.0 0.0 0.00 0.00 0.01 39 1011.3
20260505194101 56 0 0.0 0.0 0.00 0.00 0.01 38 1011.3
20260505193600 56 0 0.0 0.0 0.00 0.00 0.01 37 1011.3
20260505193100 56 0 0.0 0.0 0.00 0.00 0.01 38 1011.3
20260505192600 57 0 0.0 0.0 0.00 0.00 0.01 44 1011.2
20260505192100 57 0 0.0 0.0 0.00 0.00 0.01 45 1011.1
20260505191559 57 0 0.0 0.0 0.00 0.00 0.01 45 1011.1
20260505191059 57 0 0.0 0.0 0.00 0.00 0.01 45 1011.1
20260505190559 57 0 0.0 0.0 0.00 0.00 0.01 47 1011.1
20260505190058 56 0 0.0 0.0 0.00 0.00 0.01 45 1011.2
20260505185558 57 0 0.0 0.0 0.00 0.00 0.01 46 1011.2
20260505185058 57 0 0.0 0.0 0.00 0.00 0.01 46 1011.2
20260505184558 56 0 0.0 0.0 0.00 0.00 0.01 44 1011.2
20260505184057 57 0 0.0 0.0 0.00 0.00 0.01 45 1011.2
20260505183557 57 0 0.0 0.0 0.00 0.00 0.01 46 1011.3
20260505183057 57 0 0.0 0.0 0.00 0.00 0.01 45 1011.4
20260505182557 56 0 0.0 0.0 0.00 0.00 0.01 45 1011.5
20260505182056 56 0 0.0 0.0 0.00 0.00 0.01 46 1011.4
20260505181556 56 0 0.0 0.0 0.00 0.00 0.01 45 1011.5
20260505180555 55 0 0.0 0.0 0.00 0.00 0.01 44 1011.5
20260505180055 55 0 0.0 0.0 0.00 0.00 0.01 45 1011.6
20260505175555 55 0 0.0 0.0 0.00 0.00 0.01 43 1011.5
20260505175054 55 0 0.0 0.0 0.00 0.00 0.01 44 1011.5
20260505174554 55 0 0.0 0.0 0.00 0.00 0.01 44 1011.5
20260505174054 55 0 0.0 0.0 0.00 0.00 0.01 46 1011.5
20260505173053 55 0 0.0 0.0 0.00 0.00 0.01 45 1011.4
20260505172553 55 0 0.0 0.0 0.00 0.00 0.01 46 1011.3
20260505172053 55 0 0.0 0.0 0.00 0.00 0.01 44 1011.2
20260505171552 55 0 0.0 0.0 0.00 0.00 0.01 44 1011.2
20260505171052 55 0 0.0 0.0 0.00 0.00 0.01 43 1011.2
20260505170552 55 0 0.0 0.0 0.00 0.00 0.01 48 1011.1
20260505170052 55 0 0.0 0.0 0.00 0.00 0.01 46 1011.1
20260505165551 54 0 0.0 0.0 0.00 0.00 0.01 47 1011.1
20260505165051 54 0 0.0 0.0 0.00 0.00 0.01 45 1011.1
20260505164551 55 0 0.0 0.0 0.00 0.00 0.01 48 1011.1
20260505164050 55 0 0.0 0.0 0.00 0.00 0.01 49 1011.1
20260505163550 55 0 0.0 0.0 0.00 0.00 0.01 49 1011.1
20260505163050 55 0 0.0 0.0 0.00 0.00 0.01 47 1011.2
20260505162550 55 0 0.0 0.0 0.00 0.00 0.01 49 1011.0
20260505162049 55 0 0.0 0.0 0.00 0.00 0.01 51 1010.8
20260505161549 55 0 0.0 0.0 0.00 0.00 0.01 48 1010.8
20260505161049 54 0 0.0 0.0 0.00 0.00 0.01 50 1010.8
20260505160548 54 0 0.0 0.0 0.00 0.00 0.01 50 1010.6
20260505153046 55 0 0.0 0.0 0.00 0.00 0.00 52 1010.3
20260505152546 54 0 0.0 0.0 0.00 0.00 0.00 55 1010.5
20260505152046 53 0 0.0 0.0 0.00 0.00 0.00 56 1010.6
20260505151546 52 0 0.0 0.0 0.00 0.00 0.00 59 1010.5
20260505151045 53 0 0.0 0.0 0.00 0.00 0.00 59 1010.5
20260505150546 52 0 0.0 0.0 0.00 0.00 0.00 62 1010.3
20260505140540 47 0 0.0 0.0 0.00 0.00 0.00 73 1010.2
20260505125036 48 0 0.0 0.0 0.00 0.00 0.00 70 1010.9
20260505124535 48 0 0.0 0.0 0.00 0.00 0.00 69 1010.9
20260505124035 48 0 0.0 0.0 0.00 0.00 0.00 68 1011.1
20260505123535 48 0 0.0 0.0 0.00 0.00 0.00 67 1011.2
20260505123034 49 0 0.0 0.0 0.00 0.00 0.00 66 1011.3
20260505122534 49 0 0.0 0.0 0.00 0.00 0.00 64 1011.5
20260505122034 49 0 0.0 0.0 0.00 0.00 0.00 63 1011.4
20260505121534 50 0 0.0 0.0 0.00 0.00 0.00 61 1011.4
20260505121033 50 0 0.0 0.0 0.00 0.00 0.00 60 1011.3
20260505120533 50 0 0.0 0.0 0.00 0.00 0.00 59 1010.9
20260505120033 50 0 0.0 0.0 0.00 0.00 0.00 59 1010.1
20260505115532 50 0 0.0 0.0 0.00 0.00 0.00 60 1009.7
20260505115032 50 0 0.0 0.0 0.00 0.00 0.00 59 1009.2
20260505114532 50 0 0.0 0.0 0.00 0.00 0.00 59 1009.0
20260505114032 50 0 0.0 0.0 0.00 0.00 0.00 58 1008.9
20260505113531 50 0 0.0 0.0 0.00 0.00 0.00 56 1008.8
20260505113031 50 0 0.0 0.0 0.00 0.00 0.00 57 1009.0
20260505112531 51 0 0.0 0.0 0.00 0.00 0.00 59 1009.2
20260505112031 51 0 0.0 0.0 0.00 0.00 0.00 58 1009.5
20260505111530 51 0 0.0 0.0 0.00 0.00 0.00 58 1009.4
20260505111030 51 0 0.0 0.0 0.00 0.00 0.00 56 1009.4
20260505110530 51 0 0.0 0.0 0.00 0.00 0.00 57 1009.4
20260505102027 52 0 0.0 0.0 0.00 0.00 0.00 57 1008.1
20260505101527 52 0 0.0 0.0 0.00 0.00 0.00 57 1007.9
20260505101027 52 0 0.0 0.0 0.00 0.00 0.00 56 1008.1
20260505100526 52 0 0.0 0.0 0.00 0.00 0.00 56 1007.9
20260505100026 52 0 0.0 0.0 0.00 0.00 0.00 55 1007.7
20260505095526 52 0 0.0 0.0 0.00 0.00 0.00 56 1008.0
20260505095025 52 0 0.0 0.0 0.00 0.00 0.00 56 1007.7
20260505094525 52 0 0.0 0.0 0.00 0.00 0.00 56 1007.8
20260505094025 52 0 0.0 0.0 0.00 0.00 0.00 55 1007.8
20260505093525 53 0 0.0 0.0 0.00 0.00 0.00 55 1008.2
20260505093024 53 0 0.0 0.0 0.00 0.00 0.00 54 1008.3
20260505092524 53 0 0.0 0.0 0.00 0.00 0.00 53 1008.4
20260505092024 53 0 0.0 0.0 0.00 0.00 0.00 53 1008.1
20260505091523 53 0 0.0 0.0 0.00 0.00 0.00 52 1007.6
20260505091023 53 0 0.0 0.0 0.00 0.00 0.00 53 1007.7
20260505090523 53 0 0.0 0.0 0.00 0.00 0.00 52 1007.6
20260505090023 53 0 0.0 0.0 0.00 0.00 0.00 52 1007.3
20260505085522 53 0 0.0 0.0 0.00 0.00 0.00 52 1007.2
20260505085022 54 0 0.0 0.0 0.00 0.00 0.00 52 1007.5
20260505084522 54 0 0.0 0.0 0.00 0.00 0.00 52 1007.8
20260505084021 54 0 0.0 0.0 0.00 0.00 0.00 52 1007.5
20260505083521 54 0 0.0 0.0 0.00 0.00 0.00 52 1007.2
20260505083021 54 0 0.0 0.0 0.00 0.00 0.00 51 1006.9
20260505082521 54 0 0.0 0.0 0.00 0.00 0.00 51 1006.8
20260505082020 54 0 0.0 0.0 0.00 0.00 0.00 52 1006.7
20260505081520 54 0 0.0 0.0 0.00 0.00 0.00 51 1006.8
20260505081020 54 0 0.0 0.0 0.00 0.00 0.00 51 1006.5
20260505080519 54 0 0.0 0.0 0.00 0.00 0.00 50 1006.3
20260505080019 54 0 0.0 0.0 0.00 0.00 0.00 50 1006.1
20260505075519 54 0 0.0 0.0 0.00 0.00 0.00 51 1005.9
20260505075019 54 0 0.0 0.0 0.00 0.00 0.00 50 1005.8
20260505074518 54 0 0.0 0.0 0.00 0.00 0.00 50 1005.5
20260505074018 55 0 0.0 0.0 0.00 0.00 0.00 50 1005.5
20260505073518 55 0 0.0 0.0 0.00 0.00 0.00 50 1005.6
20260505073017 55 0 0.0 0.0 0.00 0.00 0.00 49 1005.5
20260505072517 55 0 0.0 0.0 0.00 0.00 0.00 48 1005.3
20260505072017 56 0 0.0 0.0 0.00 0.00 0.00 48 1005.1
20260505071517 56 0 0.0 0.0 0.00 0.00 0.00 48 1005.1
20260505071016 56 0 0.0 0.0 0.00 0.00 0.00 48 1005.1
20260505070515 56 0 0.0 0.0 0.00 0.00 0.00 48 1005.0
20260505070015 56 0 0.0 0.0 0.00 0.00 0.00 47 1005.0
20260505065515 57 0 0.0 0.0 0.00 0.00 0.00 47 1004.7
20260505065014 57 0 0.0 0.0 0.00 0.00 0.00 47 1004.6
20260505064515 57 0 0.0 0.0 0.00 0.00 0.00 47 1004.7
20260505064014 57 0 0.0 0.0 0.00 0.00 0.00 47 1004.6
20260505063513 57 0 0.0 0.0 0.00 0.00 0.00 47 1004.5
20260505063013 58 0 0.0 0.0 0.00 0.00 0.00 47 1004.2
20260505062513 58 0 0.0 0.0 0.00 0.00 0.00 47 1004.3
20260505062013 58 0 0.0 0.0 0.00 0.00 0.00 46 1004.3
20260505061512 58 0 0.0 0.0 0.00 0.00 0.00 45 1004.1
20260505061012 59 0 0.0 0.0 0.00 0.00 0.00 45 1004.1
20260505060512 59 0 0.0 0.0 0.00 0.00 0.00 45 1004.2
20260505060011 59 0 0.0 0.0 0.00 0.00 0.00 45 1004.3
20260505055511 59 0 0.0 0.0 0.00 0.00 0.00 45 1004.3
20260505055011 59 0 0.0 0.0 0.00 0.00 0.00 45 1004.2
20260505054511 60 0 0.0 0.0 0.00 0.00 0.00 44 1003.9
20260505054010 60 0 0.0 0.0 0.00 0.00 0.00 44 1004.0
20260505053510 60 0 0.0 0.0 0.00 0.00 0.03 46 1003.9
20260505053010 60 0 0.0 0.0 0.00 0.00 0.03 46 1003.6
20260505052509 60 0 0.0 0.0 0.00 0.00 0.03 47 1003.6
20260505052009 60 0 0.0 0.0 0.00 0.00 0.03 47 1003.5
20260505051509 60 0 0.0 0.0 0.00 0.00 0.03 49 1003.4
20260505051009 61 0 0.0 0.0 0.00 0.00 0.03 53 1003.4
20260505050508 61 0 0.0 0.0 0.00 0.00 0.03 56 1003.3
20260505041506 62 0 0.0 0.0 0.00 0.00 0.03 66 1002.6
20260505041007 62 0 0.0 0.0 0.00 0.00 0.03 66 1002.4
20260505040505 63 0 0.0 0.0 0.00 0.00 0.03 66 1002.2
20260505040005 63 0 0.0 0.0 0.00 0.00 0.03 67 1002.1
20260505035504 63 0 0.0 0.0 0.00 0.00 0.03 67 1002.2
20260505034505 63 0 0.0 0.0 0.00 0.00 0.02 66 1002.5
20260505034004 63 0 0.0 0.0 0.00 0.00 0.02 67 1002.6
20260505033003 63 0 0.0 0.0 0.00 0.00 0.02 68 1002.4
20260505032504 63 0 0.0 0.0 0.00 0.00 0.02 69 1002.3
20260505030503 63 0 0.0 0.0 0.00 0.00 0.01 66 1001.8
20260505030003 63 0 0.0 0.0 0.00 0.00 0.01 66 1001.8
20260505024002 64 0 0.0 0.0 0.00 0.00 0.01 61 1001.3
20260505023000 64 0 0.0 0.0 0.00 0.00 0.01 58 1001.9
20260505015958 61 0 0.0 0.0 0.00 0.00 0.01 73 1001.7
20260505013956 66 0 0.0 0.0 0.00 0.00 0.00 62 1002.0
20260505013456 66 0 0.0 0.0 0.00 0.00 0.00 61 1000.9